OpenBCM V1.08-5-g2f4a (Linux)

Packet Radio Mailbox

IZ3LSV

[San Dona' di P. JN]

 Login: GUEST





  
CX2SA  > KEPS     31.12.07 00:21l 222 Lines 5846 Bytes #999 (0) @ AMSAT
BID : ORB07361.W
Read: GUEST
Subj: Orbital Elements  07361.WEATHER
Path: IZ3LSV<IW2OAZ<CX2SA
Sent: 071228/0251Z @:CX2SA.LAV.URY.SA #:28486 [Minas] FBB7.00e $:ORB07361.W
From: CX2SA@CX2SA.LAV.URY.SA
To  : KEPS@AMSAT


HR AMSAT ORBITAL ELEMENTS FOR WEATHER SATELLITES
FROM WA5QGD FORT WORTH,TX December 27, 2007
Send Subscribe/unsubscribe to KEPS at 
http://www.amsat.org/mailman/listinfo/keps
BID: ORB07361.W
TO ALL RADIO AMATEURS BT

Satellite: NOAA-18
Catalog number: 28654
Epoch time:      07360.55133084
Element set:    0246
Inclination:      098.8512 deg
RA of node:       298.7853 deg
Eccentricity:    0.0015255
Arg of perigee:   084.6848 deg
Mean anomaly:     275.6061 deg
Mean motion:   14.11121529 rev/day
Decay rate:        2.7e-07 rev/day^2
Epoch rev:           13398
Checksum:              320

Satellite: NOAA-17
Catalog number: 27453
Epoch time:      07360.56390823
Element set:    0731
Inclination:      098.5600 deg
RA of node:       065.0403 deg
Eccentricity:    0.0010911
Arg of perigee:   252.0288 deg
Mean anomaly:     107.9711 deg
Mean motion:   14.23936977 rev/day
Decay rate:       2.65e-06 rev/day^2
Epoch rev:           28609
Checksum:              302

Satellite: NOAA-16
Catalog number: 26536
Epoch time:      07360.94015329
Element set:    0736
Inclination:      099.1405 deg
RA of node:       341.4656 deg
Eccentricity:    0.0010472
Arg of perigee:   356.3573 deg
Mean anomaly:     003.7539 deg
Mean motion:   14.12463857 rev/day
Decay rate:       1.96e-06 rev/day^2
Epoch rev:           37431
Checksum:              309

Satellite: OKEAN-0
Catalog number: 25860
Epoch time:      07360.54761834
Element set:    0246
Inclination:      097.7384 deg
RA of node:       353.8986 deg
Eccentricity:    0.0001797
Arg of perigee:   089.1739 deg
Mean anomaly:     270.9674 deg
Mean motion:   14.73492503 rev/day
Decay rate:       -1.1e-07 rev/day^2
Epoch rev:           45382
Checksum:              337

Satellite: FENGYUN1
Catalog number: 25730
Epoch time:      07360.98312368
Element set:    0342
Inclination:      098.7097 deg
RA of node:       337.7462 deg
Eccentricity:    0.0020535
Arg of perigee:   299.9754 deg
Mean anomaly:     059.9377 deg
Mean motion:   14.07656659 rev/day
Decay rate:       3.06e-06 rev/day^2
Epoch rev:           44459
Checksum:              348

Satellite: RESURS
Catalog number: 25394
Epoch time:      07360.71431392
Element set:    0824
Inclination:      098.4140 deg
RA of node:       047.3551 deg
Eccentricity:    0.0001908
Arg of perigee:   015.8480 deg
Mean anomaly:     344.2759 deg
Mean motion:   14.24151325 rev/day
Decay rate:       -2.9e-07 rev/day^2
Epoch rev:           49175
Checksum:              288

Satellite: NOAA-15
Catalog number: 25338
Epoch time:      07360.88806086
Element set:    0288
Inclination:      098.5438 deg
RA of node:       352.2627 deg
Eccentricity:    0.0010487
Arg of perigee:   182.4047 deg
Mean anomaly:     177.7074 deg
Mean motion:   14.24678538 rev/day
Decay rate:       -8.0e-08 rev/day^2
Epoch rev:           50012
Checksum:              325

Satellite: SICH-1
Catalog number: 23657
Epoch time:      07358.07628954
Element set:     258
Inclination:      082.5287 deg
RA of node:       260.3319 deg
Eccentricity:    0.0023757
Arg of perigee:   343.4083 deg
Mean anomaly:     016.6318 deg
Mean motion:   14.81537221 rev/day
Decay rate:       1.50e-06 rev/day^2
Epoch rev:           66414
Checksum:              304

Satellite: NOAA-14
Catalog number: 23455
Epoch time:      07360.58576056
Element set:    0948
Inclination:      098.9698 deg
RA of node:       067.5789 deg
Eccentricity:    0.0008585
Arg of perigee:   275.5422 deg
Mean anomaly:     084.4774 deg
Mean motion:   14.13733056 rev/day
Decay rate:       1.37e-06 rev/day^2
Epoch rev:           66982
Checksum:              366

Satellite: OKEAN-4
Catalog number: 23317
Epoch time:      07358.10743433
Element set:     459
Inclination:      082.5385 deg
RA of node:       119.3644 deg
Eccentricity:    0.0021993
Arg of perigee:   351.9501 deg
Mean anomaly:     008.1375 deg
Mean motion:   14.82562883 rev/day
Decay rate:       1.40e-06 rev/day^2
Epoch rev:           71219
Checksum:              299

Satellite: MET-2/21
Catalog number: 22782
Epoch time:      07358.12347136
Element set:      19
Inclination:      082.5478 deg
RA of node:       251.2276 deg
Eccentricity:    0.0024051
Arg of perigee:   065.1332 deg
Mean anomaly:     295.2337 deg
Mean motion:   13.83622949 rev/day
Decay rate:        4.8e-07 rev/day^2
Epoch rev:           72278
Checksum:              304

Satellite: MET-3/5
Catalog number: 21655
Epoch time:      07360.90706276
Element set:    0438
Inclination:      082.5547 deg
RA of node:       226.7781 deg
Eccentricity:    0.0014533
Arg of perigee:   085.1034 deg
Mean anomaly:     275.1748 deg
Mean motion:   13.17012990 rev/day
Decay rate:        5.1e-07 rev/day^2
Epoch rev:           78677
Checksum:              315

Satellite: NOAA-12
Catalog number: 21263
Epoch time:      07360.90427609
Element set:    0478
Inclination:      098.7618 deg
RA of node:       357.9153 deg
Eccentricity:    0.0011542
Arg of perigee:   268.5383 deg
Mean anomaly:     091.4473 deg
Mean motion:   14.25509068 rev/day
Decay rate:       -2.5e-07 rev/day^2
Epoch rev:           86370
Checksum:              320

Satellite: NOAA-11
Catalog number: 19531
Epoch time:      07360.83891606
Element set:    0973
Inclination:      098.8067 deg
RA of node:       087.5567 deg
Eccentricity:    0.0011203
Arg of perigee:   199.0181 deg
Mean anomaly:     161.0572 deg
Mean motion:   14.14859794 rev/day
Decay rate:      -1.41e-06 rev/day^2
Epoch rev:           99339
Checksum:              333

Satellite: NOAA-10
Catalog number: 16969
Epoch time:      07360.65846113
Element set:    0940
Inclination:      098.7353 deg
RA of node:       017.8605 deg
Eccentricity:    0.0012062
Arg of perigee:   330.6820 deg
Mean anomaly:     029.3684 deg
Mean motion:   14.27345887 rev/day
Decay rate:        6.7e-07 rev/day^2
Epoch rev:           10668
Checksum:              316



Read previous mail | Read next mail


 15.09.2025 09:19:02lGo back Go up